www.pogodaiklimat.ru
ПОГОДА в Лейпциге

Архив погоды в Лейпциге (Германия)

Время
(UTC), дата
10 18.01
11 18.01
12 18.01
13 18.01
14 18.01
15 18.01
16 18.01
17 18.01
18 18.01
19 18.01
20 18.01
21 18.01
22 18.01
23 18.01
00 19.01
01 19.01
02 19.01
03 19.01
04 19.01
05 19.01
06 19.01
07 19.01
08 19.01
09 19.01
10 19.01
11 19.01
12 19.01
13 19.01
14 19.01
15 19.01
16 19.01
17 19.01
18 19.01
19 19.01
20 19.01
21 19.01
22 19.01
23 19.01
00 20.01
01 20.01
02 20.01
03 20.01
04 20.01
05 20.01
06 20.01
07 20.01
08 20.01
09 20.01
10 20.01
11 20.01
12 20.01
13 20.01
14 20.01
15 20.01
16 20.01
17 20.01
18 20.01
19 20.01
20 20.01
21 20.01
22 20.01
23 20.01
00 21.01
01 21.01
02 21.01
03 21.01
04 21.01
05 21.01
06 21.01
07 21.01
08 21.01
09 21.01
10 21.01
11 21.01
12 21.01
13 21.01
14 21.01
15 21.01
16 21.01
17 21.01
18 21.01
19 21.01
20 21.01
21 21.01
22 21.01
23 21.01
00 22.01
01 22.01
02 22.01
03 22.01
04 22.01
05 22.01
06 22.01
07 22.01
08 22.01
09 22.01
10 22.01
11 22.01
12 22.01
13 22.01
14 22.01
15 22.01
16 22.01
17 22.01
18 22.01
19 22.01
20 22.01
21 22.01
22 22.01
23 22.01
00 23.01
01 23.01
02 23.01
03 23.01
04 23.01
05 23.01
06 23.01
07 23.01
08 23.01
09 23.01
10 23.01
11 23.01
12 23.01
13 23.01
14 23.01
15 23.01
16 23.01
17 23.01
18 23.01
19 23.01
20 23.01
21 23.01
22 23.01
23 23.01
00 24.01
01 24.01
02 24.01
03 24.01
04 24.01
05 24.01
06 24.01
07 24.01
08 24.01
09 24.01
10 24.01
11 24.01
12 24.01
13 24.01
14 24.01
15 24.01
16 24.01
17 24.01
18 24.01
19 24.01
20 24.01
21 24.01
22 24.01
23 24.01
00 25.01
01 25.01
02 25.01
03 25.01
04 25.01
05 25.01
06 25.01
07 25.01
08 25.01
Ветер
(напр.,м/с)
Видим. Явления Облачность Т
(С)
Тd
(С)
f
(%)
Тe
(С)
Тes
(С)
Комфортность P
(гПа)
Po
(гПа)
Тmin
(С)
Tmax
(С)
R
(мм)
R24
(мм)
S
(см)
З 2 12 км в посл. час морось 10/10 60 м
[Sc]
+3.3 +3.0 98 0 0 тепло 1037.7 1020.6
З 3 15 км слаб. морось {дождь} 10/10 210 м
[Sc]
+3.9 +3.5 97 -0 -0 тепло 1037.5 1020.4
З 3 25 км в посл. час морось {дождь} 9/9 210 м
[Sc]
+4.7 +3.6 93 +1 +1 по сезону 1037.2 1020.1 0.1
З 2 40 км 10/10 300 м
[Sc]
+4.9 +3.0 87 +2 +2 тепло 1037.1 1020.1
штиль 0 35 км в посл. час морось 10/9 360 м
[Cu Sc]
+4.9 +2.6 85 +4 +4 тепло 1037.2 1020.2
ЮЗ 3 35 км в посл. час морось 10/9 360 м
[Cu Sc]
+4.6 +3.1 90 +1 +1 по сезону 1037.1 1020.0 0.0
ЮЗ 3 30 км 10/9 240 м
[Cu Sc]
+4.3 +3.4 94 0 0 тепло 1037.1 1020.0
ЮЗ 3 40 км 10/9 630 м
[Sc]
+4.3 +3.2 93 +1 +1 тепло 1037.1 1020.0
ЮЗ 3 35 км {морось} 10/9 600 м
[Sc]
+4.3 +3.1 92 +1 +1 по сезону 1036.8 1019.7 +1.2 +5.0 0.5
ЮЗ 3 35 км 10/9 600 м
[Sc]
+4.3 +3.0 91 +1 +1 тепло 1036.3 1019.2
ЮЗ 2 50 км 10/10 630 м
[Sc]
+4.0 +3.1 94 +1 +1 тепло 1036.7 1019.6
ЮЗ 3 50 км 10/10 570 м
[Sc]
+4.0 +3.0 93 0 0 по сезону 1036.1 1019.0
ЮЗ 2 50 км 10/10 600 м
[Sc]
+3.9 +3.0 94 +1 +1 тепло 1035.9 1018.8
ЮЗ 3 50 км 10/10 630 м
[Sc]
+4.1 +2.9 92 0 0 тепло 1035.1 1018.0
ЮЗ 3 50 км 10/10 600 м
[Sc]
+4.0 +2.6 91 0 0 по сезону 1034.7 1017.6
ЮЗ 3 50 км 10/10 570 м
[Sc]
+4.1 +1.7 84 0 0 тепло 1034.0 1017.0
ЮЗ 3 50 км 10/10 570 м
[Sc]
+3.8 +1.7 86 0 0 тепло 1032.8 1015.8
ЮЗ 4 50 км 6/4 540 м
[Sc Ci fib]
+2.3 +0.4 87 -3 -3 по сезону 1031.8 1014.7
ЮЗ 4 50 км 8/4 540 м
[Sc Ci]
+1.5 +0.1 90 -4 -4 тепло 1030.9 1013.7
Ю 4 50 км 8/4 480 м
[Sc Ci fib]
+2.3 +0.4 87 -3 -3 тепло 1029.6 1012.5
ЮЗ 4 50 км 5/4 300 м
[Sc Ci fib]
+1.9 0.0 87 -3 -3 по сезону 1028.8 1011.7 +1.5 +4.9
ЮЗ 6 30 км 9/9 270 м
[Sc]
+1.7 +0.1 89 -5 -5 тепло 1027.9 1010.8
ЮЗ 7 25 км 10/9 240 м
[St]
+1.7 +0.3 90 -5 -5 тепло 1027.4 1010.3
ЮЗ 8 30 км 10/9 200 м
[St]
+2.0 +0.4 89 -5 -5 по сезону 1026.6 1009.5
ЮЗ 7 35 км 10/9 300 м
[Sc]
+2.3 +0.4 87 -4 -4 тепло 1025.7 1008.7
ЮЗ 8 45 км 10/9 360 м
[Sc]
+2.6 +0.2 84 -4 -4 тепло 1024.5 1007.5
ЮЗ 7 50 км 4/3 400 м
[Cu hum Ci fib]
+4.2 +0.8 79 -2 -1 по сезону 1023.2 1006.3
ЮЗ 7 55 км 6/4 600 м
[Cu hum Ci]
+5.4 +0.8 72 0 0 тепло 1021.6 1004.8
ЮЗ 7 55 км 8/3 700 м
[Cu hum Ci]
+5.4 +0.9 73 0 0 тепло 1020.5 1003.8
ЮЗ 7 55 км 9/6 700 м
[Sc Ci fib]
+4.5 +0.4 75 -1 -1 по сезону 1019.7 1002.9
ЮЗ 6 55 км 9/9 800 м
[Sc]
+4.0 -0.1 75 -1 -1 тепло 1019.0 1002.2
ЮЗ 8 50 км 9/9 800 м
[Sc]
+4.0 0.0 75 -2 -2 тепло 1018.3 1001.5
З 10 40 км 9/9 600 м
[Sc]
+4.0 -0.2 74 -3 -3 по сезону 1017.8 1001.0 +1.4 +5.6
З 9 30 км 10/9 540 м
[Sc]
+3.6 -0.1 77 -3 -3 тепло 1017.5 1000.7
ЮЗ 10 25 км 10/9 480 м
[Cu Sc]
+3.2 -0.1 79 -4 -4 тепло 1016.9 1000.1
ЮЗ 9 25 км в посл. час дождь 10/9 480 м
[Cu Sc]
+2.9 +0.5 84 -4 -4 по сезону 1016.3 999.5 0.0
З 10 30 км в посл. час дождь 10/9 480 м
[Sc]
+2.9 +0.6 85 -4 -4 тепло 1016.3 999.5
З 10 35 км 10/9 400 м
[Cu Sc]
+3.2 +0.8 84 -4 -4 тепло 1016.1 999.3
З 10 35 км {дождь} 10/9 300 м
[Cu Sc]
+3.2 +0.9 85 -4 -4 по сезону 1016.3 999.5 0.0
З 9 30 км в посл. час дождь 9/9 400 м
[Cu Sc]
+3.1 +1.3 88 -4 -4 по сезону 1016.8 1000.0
З 8 35 км 1/1 1000 м
[Cu hum]
+3.1 -0.6 77 -3 -3 тепло 1017.0 1000.2
З 7 35 км {дождь} 8/8 1200 м
[Sc]
+2.0 -1.6 77 -4 -4 по сезону 1016.9 1000.0 0.0
З 6 35 км 3/3 1140 м
[Cu hum]
+1.2 -1.7 81 -5 -5 по сезону 1016.2 999.3
З 9 35 км 9/9 1170 м
[Sc]
+2.9 -0.4 79 -4 -4 тепло 1015.7 998.9
З 10 12 км слаб. дождь 10/3 200 м
[Frnb Ac und]
+2.5 +0.2 85 -5 -5 по сезону 1015.6 998.8 +1.1 +3.9 0.2
СЗ 8 8000 м слаб. снег {дождь} 10/9 150 м
[Sc]
+1.0 -0.5 90 -6 -6 по сезону 1016.9 999.9
СЗ 9 35 км в посл. час снег 4/4 150 м
[Cu Sc]
+1.0 -2.6 77 -6 -6 тепло 1018.1 1001.1
СЗ 7 35 км {снег, дождь} 3/3 300 м
[Cu Sc]
+1.4 -3.3 71 -5 -5 прохладно 1019.6 1002.6 0.3
СЗ 8 40 км 3/3 750 м
[Cu Sc]
+1.9 -3.1 69 -5 -4 по сезону 1020.0 1003.0
СЗ 8 40 км 3/3 750 м
[Cu Sc]
+2.6 -2.7 68 -4 -3 тепло 1019.8 1002.9
СЗ 9 40 км {снег, дождь} 5/5 900 м
[Cu Sc]
+2.9 -3.4 63 -4 -4 прохладно 1019.6 1002.7
З 9 25 км осадки на расстоянии 9/6 900 м
[Cu med, cong Ac und]
+2.5 -3.4 65 -4 -4 по сезону 1019.3 1002.4
З 9 35 км в посл. час ливневой снег 8/6 750 м
[Cb calv Ac As]
+1.5 -2.1 77 -6 -6 по сезону 1019.6 1002.6
З 9 35 км в посл. час ливневой снег 8/8 600 м
[Cu Sc Ac lent]
+1.5 -3.2 71 -6 -6 холодно 1019.5 1002.5 0.0
З 9 35 км 8/6 600 м
[Cu Sc As op]
+1.0 -3.8 70 -6 -6 по сезону 1019.7 1002.7
З 8 50 км 4/4 600 м
[Cu Sc]
0.0 -3.4 78 -7 -7 по сезону 1020.0 1002.9
СЗ 8 45 км в посл. час ливневой снег 8/8 600 м
[Cb calv]
+0.5 -3.2 76 -7 -7 холодно 1020.7 1003.6 0.0 +3.1 0.3
СЗ 6 45 км 9/9 700 м
[Cu Sc]
+0.4 -3.3 76 -6 -6 по сезону 1021.6 1004.5
СЗ 6-10
{12}
45 км ясно -0.2 -4.4 73 -7 -7 тепло 1022.5 1005.4
СЗ 6 45 км 1/1 1500 м
[Sc]
-0.5 -4.6 74 -7 -7 прохладно 1023.5 1006.3
СЗ 5-7
{10}
45 км ясно -0.8 -5.4 71 -7 -7 по сезону 1024.5 1007.3
СЗ 5-7
{9}
45 км ясно -1.1 -6.1 69 -7 -7 тепло 1025.2 1008.0
З 5 45 км ясно -1.5 -6.2 70 -8 -8 прохладно 1026.2 1008.9
З 5-8
{9}
45 км ясно -1.9 -6.5 71 -8 -8 по сезону 1026.6 1009.3
З 6-9
{9}
45 км ясно -2.1 -6.7 71 -9 -9 тепло 1027.1 1009.8
З 5 45 км ясно -4.0 -7.3 78 -11 -11 холодно 1027.4 1009.9
З 6-8
{9}
45 км ясно -2.6 -7.1 71 -10 -10 по сезону 1027.5 1010.1
З 5-7
{8}
45 км ясно -4.1 -7.9 75 -11 -11 тепло 1027.9 1010.4
З 6 45 км ясно -4.1 -7.1 80 -12 -12 холодно 1027.7 1010.2 -4.6 +0.7
З 5 40 км 1/0
[Ac und Ci]
-3.2 -5.3 85 -10 -10 по сезону 1027.6 1010.2
З 6 40 км 9/9 1500 м
[Sc]
-1.7 -3.5 87 -9 -9 тепло 1027.3 1010.0
З 6 35 км снежные кристаллы {ливн. снег} 9/9 600 м
[Cu Sc]
-0.1 -2.4 84 -7 -7 прохладно 1027.1 1009.9 0.0
З 7 35 км в посл. час снег 9/9 360 м
[Cu Sc]
+0.9 -2.1 80 -6 -6 по сезону 1027.3 1010.2
СЗ 7 45 км в посл. час крупа 6/5 480 м
[Cu Sc Ci fib]
+1.8 -2.0 76 -5 -4 тепло 1027.6 1010.5
СЗ 7 50 км {ливн. снег, снег} 6/5 540 м
[Cu Sc Ci fib]
+2.0 -3.4 67 -4 -4 по сезону 1027.9 1010.8 0.0
СЗ 6 60 км 1/1 700 м
[Cu med, cong Ac trans Ci fib]
+2.3 -3.4 66 -3 -3 по сезону 1027.7 1010.6
СЗ 6 60 км 1/1 750 м
[Cu med, cong Ac trans Ci fib]
+2.1 -3.6 66 -4 -3 тепло 1027.7 1010.6
З 6 60 км 1/1 750 м
[Cu hum Ac lent Ci fib]
+1.9 -3.2 69 -4 -4 по сезону 1027.6 1010.5
З 5 50 км 3/1 600 м
[Cu hum Ac und Ci fib]
+0.8 -2.8 77 -5 -5 по сезону 1027.7 1010.5
З 6 35 км 5/1 540 м
[Cu hum Ac und Ci fib]
0.0 -2.4 84 -7 -7 тепло 1027.7 1010.5
З 5 35 км 9/6 600 м
[Sc Ac und]
+1.0 -1.5 83 -5 -5 по сезону 1027.4 1010.3 -4.2 +2.4 0.0
З 4 40 км 10/9 600 м
[Sc]
+1.1 -1.3 84 -4 -4 тепло 1027.2 1010.1
З 7 35 км слаб. дождь со снегом 10/9 570 м
[Sc]
+1.5 -0.3 88 -5 -5 тепло 1026.7 1009.6
З 8 6000 м дождь {снег} 10/9 180 м
[Sc]
+1.5 +0.6 94 -6 -6 по сезону 1025.9 1008.8 0.2
З 8 4600 м слаб. дождь со снегом 10/9 180 м
[Sc]
+1.6 +1.0 96 -6 -6 по сезону 1024.9 1007.9
З 8 3200 м дождь {снег} 10/10 150 м
[Sc]
+2.0 +1.6 97 -5 -5 тепло 1024.1 1007.1
З 7 3000 м дождь {снег} 10/9 100 м
[Frnb]
+2.7 +2.4 98 -4 -4 по сезону 1023.8 1006.8 2
З 5 3500 м дождь 10/10 150 м
[St]
+2.8 +2.6 99 -3 -3 тепло 1023.6 1006.7
СЗ 6 3000 м дождь 10/10 120 м
[St]
+4.6 +4.4 99 -1 -1 тепло 1023.7 1006.9
СЗ 6 3000 м дождь 10/10 120 м
[St]
+4.7 +4.4 98 -1 -1 по сезону 1023.6 1006.8 1
С 8 3000 м дождь 10/10 120 м
[St]
+4.4 +4.3 99 -2 -2 тепло 1024.9 1008.0
С 6 40 км в посл. час дождь {морось} 9/8 360 м
[Sc As op]
+3.8 +3.3 97 -2 -2 тепло 1025.8 1008.9
СЗ 4 40 км {дождь, морось} 9/4 200 м
[St Ac und]
+3.6 +2.8 94 -1 -1 по сезону 1026.5 1009.6 +0.8 +4.8 4
СЗ 3 30 км 9/9 210 м
[Sc]
+3.5 +2.9 96 -1 -1 тепло 1027.3 1010.3
СЗ 3 30 км 10/9 210 м
[St]
+3.6 +3.0 96 -1 -1 тепло 1027.9 1010.9
СЗ 3 30 км 10/9 200 м
[Cu Sc]
+3.9 +3.3 96 -0 0 по сезону 1028.4 1011.4
СЗ 3 30 км 10/9 180 м
[Cu Sc]
+4.4 +3.5 94 +1 +1 тепло 1029.0 1012.1
СЗ 4 30 км 10/9 300 м
[Cu Sc]
+4.8 +3.5 91 +1 +1 тепло 1029.1 1012.2
СЗ 3 30 км 10/9 300 м
[Cu Sc]
+5.0 +3.1 88 +1 +2 по сезону 1029.3 1012.4
СЗ 2 30 км 10/9 210 м
[Cu Sc]
+5.1 +3.4 89 +2 +3 тепло 1029.3 1012.4
СЗ 2 30 км 9/9 240 м
[Cu Sc]
+5.2 +3.4 88 +3 +3 тепло 1029.3 1012.4
СЗ 2 20 км 10/9 300 м
[Sc]
+5.1 +3.6 90 +2 +2 тепло 1029.5 1012.6
З 2 2000 м слаб. морось {дождь} 10/9 60 м
[Frnb]
+4.6 +4.0 96 +2 +2 тепло 1029.8 1012.9
З 1 1200 м дождь {морось} 10/9 60 м
[Frnb]
+4.6 +4.6 100 +3 +3 тепло 1030.1 1013.2
СЗ 3 7000 м дождь {морось} 10/9 100 м
[Frnb]
+4.9 +4.6 98 +1 +1 тепло 1030.4 1013.5 +3.4 +5.3 0.4
З 4 3500 м дождь 10/9 120 м
[Frnb]
+5.0 +4.6 97 +1 +1 тепло 1030.6 1013.7
З 4 5000 м дождь 10/9 120 м
[St]
+4.9 +4.5 97 +1 +1 тепло 1030.8 1013.9
СЗ 4 40 км в посл. час дождь 10/4 270 м
[Frnb As op]
+4.7 +4.3 97 0 0 по сезону 1030.9 1014.0 2
СЗ 3 40 км 10/9 270 м
[Sc]
+4.3 +3.6 95 0 0 тепло 1031.6 1014.6
З 3 35 км 10/9 270 м
[Sc]
+4.4 +3.5 94 +1 +1 тепло 1031.8 1014.8
З 4 25 км дождь {морось} 10/4 200 м
[Frnb As op]
+4.1 +3.4 95 -1 -1 по сезону 1031.9 1014.9 2
З 4 6000 м дождь 10/10 210 м
[St]
+4.0 +3.3 95 -1 -1 тепло 1032.2 1015.2
З 4 7000 м дождь {морось} 10/9 180 м
[Frnb]
+3.8 +3.3 97 -1 -1 тепло 1032.3 1015.3
З 4 12 км в посл. час дождь {морось} 10/9 180 м
[St]
+3.7 +3.2 97 -1 -1 по сезону 1032.1 1015.1 0.2
З 4 10 км 10/10 180 м
[St]
+3.3 +2.9 97 -2 -2 тепло 1032.5 1015.4
З 4 12 км в посл. час морось 9/9 120 м
[Sc]
+3.5 +3.0 97 -1 -1 тепло 1032.7 1015.6
З 3 7000 м слаб. морось {дождь} 10/10 200 м
[St]
+3.3 +2.9 97 -1 -1 по сезону 1033.1 1016.0 +3.2 +5.0 2
З 4 4000 м слаб. морось 10/9 240 м
[Sc]
+3.1 +2.7 97 -2 -2 тепло 1033.5 1016.4
З 4 10 км в посл. час морось 9/9 240 м
[Sc]
+3.5 +3.1 97 -1 -1 тепло 1034.1 1017.0
З 4 5000 м слаб. морось 10/9 100 м
[Frnb]
+3.6 +3.1 97 -1 -1 по сезону 1034.3 1017.2 0.1
З 4 8000 м слаб. морось 10/9 150 м
[Frnb]
+4.2 +3.8 97 -0 -0 тепло 1034.5 1017.5
З 4 8000 м в посл. час морось 10/9 150 м
[St]
+4.6 +4.1 97 0 0 тепло 1034.6 1017.6
З 4 6000 м слаб. морось 10/9 150 м
[Frnb]
+4.9 +4.5 97 +1 +1 по сезону 1034.2 1017.2 0.2
З 4 10 км слаб. морось 10/9 150 м
[Sc]
+5.3 +4.8 97 +1 +1 тепло 1034.1 1017.1
З 3 10 км слаб. морось 10/9 210 м
[Sc]
+5.3 +4.5 95 +2 +2 тепло 1034.0 1017.0
З 3 5000 м слаб. морось 10/9 150 м
[Sc]
+5.3 +4.8 97 +2 +2 тепло 1034.1 1017.1 0.0
СЗ 2 3000 м слаб. морось 10/9 120 м
[Frnb]
+5.2 +4.9 98 +2 +2 тепло 1034.4 1017.4
СЗ 3 5000 м слаб. морось 10/9 120 м
[Frnb]
+5.1 +4.8 98 +1 +1 тепло 1034.6 1017.6
СЗ 2 7000 м в посл. час дождь {морось} 10/9 50 м
[St]
+5.0 +4.7 98 +2 +2 тепло 1034.7 1017.7 +3.1 +5.5 0.6
СЗ 2 2000 м слаб. морось 10/9 60 м
[Frnb]
+5.0 +4.9 99 +2 +2 тепло 1034.9 1017.9
З 2 3500 м в посл. час морось 10/10 60 м
[St]
+5.0 +4.9 99 +2 +2 тепло 1035.1 1018.1
СЗ 2 1200 м морось 10/10 30 м
[St]
+5.2 +5.1 99 +2 +2 тепло 1035.0 1018.0 0.3
СЗ 2 2500 м слаб. морось 10/10 60 м
[St]
+5.2 +5.2 100 +2 +2 тепло 1035.0 1018.0
СЗ 2 1800 м слаб. морось 10/10 60 м
[St]
+5.3 +5.3 100 +2 +2 тепло 1035.1 1018.1
СЗ 2 1700 м слаб. морось 10/10 <50 м
[St]
+5.4 +5.4 100 +3 +3 тепло 1035.3 1018.3 0.6
СЗ 2 800 м слаб. морось 10/10 30 м
[St]
+5.3 +5.3 100 +2 +2 тепло 1035.0 1018.0
СЗ 2 1200 м слаб. морось {туман} 10/10 30 м
[St]
+5.2 +5.1 99 +2 +2 тепло 1035.1 1018.1
СЗ 2 1100 м туман на расстоянии {морось} 10/10 30 м
[St]
+5.2 +5.2 100 +2 +2 тепло 1034.8 1017.8 0.1
С 2 900 м слаб. морось {туман} 10/10 30 м
[St]
+5.1 +5.0 99 +2 +2 тепло 1034.7 1017.7
СЗ 2-3
{3}
600 м туман {морось} ?/? +5.1 +5.1 100 +2 +2 тепло 1034.8 1017.8
С 2 1200 м слаб. морось {туман} 10/10 <50 м
[St]
+5.1 +5.1 100 +2 +2 тепло 1035.1 1018.1 +4.9 +5.4 0.8
С 1-2
{3}
500 м туман {морось} ?/? +5.0 +5.0 100 +3 +3 тепло 1035.2 1018.2
С 1-1
{2}
500 м туман ?/? +5.0 +5.0 100 +3 +3 тепло 1035.5 1018.5
С 1 900 м туман {морось} 10/9 <50 м
[St]
+5.2 +5.2 100 +4 +4 тепло 1035.6 1018.6 0.0
ЮВ 1 4500 м в посл. час туман 10/10 120 м
[Sc]
+5.5 +5.0 97 +4 +4 тепло 1035.6 1018.6
ЮВ 1 8000 м 10/10 150 м
[Sc]
+5.7 +5.0 95 +4 +4 тепло 1035.4 1018.4
В 1 15 км {дождь, туман} 10/9 210 м
[Sc]
+6.2 +4.1 86 +5 +5 тепло 1034.7 1017.8
З 2 8000 м 10/10 240 м
[Sc]
+5.8 +4.6 92 +3 +3 тепло 1034.5 1017.6
З 2 8000 м 10/10 120 м
[Sc]
+5.8 +4.7 93 +3 +3 тепло 1034.4 1017.5
З 2 7000 м дымка 10/10 180 м
[Sc]
+5.4 +4.7 95 +3 +3 тепло 1034.4 1017.4
ЮЗ 1 9000 м 10/10 240 м
[Sc]
+5.3 +4.5 95 +4 +4 тепло 1034.4 1017.4
ЮЗ 1 10 км 10/10 540 м
[Sc]
+5.0 +4.5 97 +4 +4 тепло 1034.2 1017.2
З 1 30 км 10/10 300 м
[Sc]
+5.2 +3.9 91 +4 +4 тепло 1034.4 1017.4 +4.9 +6.4 0.0
З 2 30 км 10/10 480 м
[Sc]
+5.0 +3.2 88 +2 +2 тепло 1034.4 1017.4
З 2 30 км 10/10 480 м
[Sc]
+5.1 +3.2 88 +2 +2 тепло 1034.3 1017.3
ЮЗ 2 25 км 10/10 450 м
[Sc]
+5.0 +3.4 89 +2 +2 тепло 1034.1 1017.1
З 3 20 км 10/10 450 м
[Sc]
+4.7 +3.6 93 +1 +1 тепло 1034.3 1017.3
З 3 15 км 10/10 420 м
[Sc]
+4.5 +3.6 94 +1 +1 тепло 1034.2 1017.2
З 3 20 км 10/10 300 м
[Sc]
+4.2 +3.2 93 0 0 тепло 1034.1 1017.1
З 3 25 км 10/10 450 м
[Sc]
+4.0 +3.0 93 0 0 тепло 1033.9 1016.9
З 3 25 км 10/10 420 м
[Sc]
+3.9 +2.7 92 0 0 тепло 1033.7 1016.7
ЮЗ 3 30 км 10/10 400 м
[Sc]
+3.7 +2.3 91 -0 -0 тепло 1033.3 1016.2
З 4 25 км 10/10 450 м
[Sc]
+3.6 +2.1 90 -1 -1 тепло 1033.0 1015.9
З 2 15 км 10/10 330 м
[St]
+3.4 +2.2 92 0 0 тепло 1033.0 1015.9
З 2 10 км слаб. морось 10/10 200 м
[Sc]
+3.0 +2.0 93 -0 -0 тепло 1033.0 1015.9 +3.0 +5.4 0.0
З 2 10 км в посл. час морось 10/10 240 м
[Cu Sc]
+3.0 +2.2 94 -0 -0 тепло 1033.2 1016.1
СЗ 2 10 км в посл. час морось 10/10 240 м
[Cu Sc]
+3.0 +1.9 92 -0 -0 тепло 1033.5 1016.4
Местоположение метеостанции Лейпциг (Германия): широта 51.42 долгота 12.23 высота над уровнем моря 133 м.
В архиве по умолчанию представлена погода в Лейпциге за последнюю неделю. Архивные данные за месяц целиком и за предыдущие месяцы, начиная с января 2011 года, Вы можете получить, выбрав интересующий диапазон дат из раскрывающегося списка и нажав кнопку "Найти!".
*Определитесь, кто Вы:
Внимание! Время в таблицах - всемирное. Для получения местного времени необходимо прибавить поправку, которая равна 1 ч.
Смотрите также архив погоды в соседних городах и на ближайших метеорологических станциях:
Партнеры нашего сайта:      
Пояснения к столбцам:
  • Ветер - указаны скорость ветра в м/с - средняя за 10 мин, порывы в срок и между сроками (в фигурных скобках) и направление, откуда дует ветер: С - северный,
  • СВ - северо-восточный, В - восточный, ЮВ - юго-восточный, Ю - южный, ЮЗ - юго-западный, З - западный, СЗ - северо-западный.
  • Видимость - горизонтальная дальность видимости в метрах или километрах. При видимости от 1 до 10 км при отсутствии осадков обычно наблюдается дымка, при ухудшении видимости до 1 км и менее - туман. В сухую погоду видимость может ухудшаться дымом, пылью или мглою.
  • Явления - указаны атмосферные явления, наблюдавшиеся в срок или в последний час перед сроком; фигурными скобками обозначены явления, наблюдавшиеся между сроками (за 1-3 часа до срока); квадратными скобками обозначены град или гололедные отложения с указанием их диаметра в мм.
  • Облачность - указаны через наклонную черту общая и нижняя облачность в баллах и высота нижней границы облаков в метрах; квадратными скобками обозначены формы облаков: Ci - перистые, Cs - перисто-слоистые, Cc - перисто-кучевые, Ac - высококучевые, As - высокослоистые, Sc - слоисто-кучевые, Ns - слоисто-дождевые, Cu - кучевые, Cb - кучево-дождевые. Подробнее классификацию облаков см. в Атласе облаков (PDF).
  • T - Температура воздуха - температура, измеренная на высоте 2 м над землей.
  • Td - Температура точки росы - температура, при понижении до которой содержащийся в воздухе водяной пар достигнет насыщения.
  • f - Относительная влажность воздуха - влажноcть воздуха, измеренная на высоте 2 м над землей.
  • Te - Эффективная температура - температура, которую ощущает одетый по сезону человек в тени. Характеристика душности погоды. При расчете учитывается влияние влажности воздуха и скорости ветра на теплоощущения человека.
  • Tes - Эффективная температура на солнце - температура, которую ощущает человек, с поправкой на солнечный нагрев. Характеристика знойности погоды. Зависит от высоты солнца над горизонтом, облачности и скорости ветра. Ночью, в пасмурную погоду, а также при ветре 12 м/с и более поправка равна нулю.
  • P - Атмосферное давление - приведенное к уровню моря атмосферное давление.
  • Po - Атмосферное давление - измеренное на уровне метеостанции атмосферное давление.
  • Tmin - Минимальная температура - минимум температуры воздуха на высоте 2 м над землей.
  • Tmax - Максимальная температура - максимум температуры воздуха на высоте 2 м над землей.
  • R - Количество осадков - Количество выпавших осадков за период времени, мм. При наведении курсора мыши на число - период времени, за который выпало указанное количество осадков.
  • R24 - Количество осадков - Количество выпавших осадков за 24 часа, мм.
  • S - Снежный покров - Высота снежного покрова, см. При наведении курсора мыши на число - состояние снежного покрова и степень покрытия местности в баллах.